• In Portugal
  • List of Countries
  • For 7 days
  • Water Temperature
  • Satellite Maps
  • Weather Map
  • Weather Widgets
  • user-avatar
    Login

    Hourly Weather Igls

    Today, 24 October, Wednesday

    Time Temperature Precipitation Wind Pressure Humidity
    00:00 +8°C° 0.2 mm 3 mps 688 mmHg 72%
    01:00 +8°C° 0.2 mm 3 mps 687 mmHg 74%
    02:00 +8°C° 0.1 mm 3 mps 687 mmHg 76%
    03:00 +8°C° 0.1 mm 3 mps 687 mmHg 78%
    04:00 +8°C° 0.1 mm 3 mps 686 mmHg 79%
    05:00 +8°C° 0.6 mm 3 mps 686 mmHg 83%
    06:00 +8°C° 0.6 mm 3 mps 686 mmHg 86%
    07:00 +8°C° 0.6 mm 3 mps 686 mmHg 89%
    08:00 +9°C° 1.4 mm 3 mps 686 mmHg 90%
    09:00 +9°C° 1.4 mm 3 mps 686 mmHg 90%
    10:00 +9°C° 1.4 mm 3 mps 686 mmHg 90%
    11:00 +10°C° 1.6 mm 3 mps 686 mmHg 91%
    12:00 +10°C° 1.6 mm 3 mps 686 mmHg 91%
    13:00 +10°C° 1.6 mm 3 mps 686 mmHg 91%
    14:00 +10°C° 1.6 mm 3 mps 686 mmHg 92%
    15:00 +10°C° 1.6 mm 3 mps 686 mmHg 92%
    16:00 +10°C° 1.6 mm 3 mps 686 mmHg 93%
    17:00 +10°C° 1 mm 3 mps 686 mmHg 94%
    18:00 +10°C° 1 mm 3 mps 686 mmHg 95%
    19:00 +10°C° 1 mm 3 mps 687 mmHg 95%
    20:00 +10°C° 0.6 mm 3 mps 687 mmHg 96%
    21:00 +10°C° 0.6 mm 3 mps 687 mmHg 96%
    22:00 +10°C° 0.6 mm 2 mps 687 mmHg 96%
    23:00 +9°C° 0.2 mm 2 mps 687 mmHg 96%

    Tomorrow, 25 October, Thursday

    Time Temperature Precipitation Wind Pressure Humidity
    00:00 +9°C° 0.2 mm 2 mps 687 mmHg 97%
    01:00 +9°C° 0.2 mm 2 mps 687 mmHg 97%
    02:00 +9°C° 0.1 mm 2 mps 687 mmHg 97%
    03:00 +9°C° 0.1 mm 2 mps 687 mmHg 97%
    04:00 +9°C° 0.1 mm 1 mps 687 mmHg 97%
    05:00 +9°C° 0 mm 1 mps 687 mmHg 96%
    06:00 +8°C° 0 mm 1 mps 687 mmHg 96%
    07:00 +8°C° 0 mm 1 mps 686 mmHg 95%
    08:00 +10°C° 0 mm 1 mps 686 mmHg 88%
    09:00 +12°C° 0 mm 1 mps 687 mmHg 81%
    10:00 +14°C° 0 mm 1 mps 687 mmHg 73%
    11:00 +15°C° 0 mm 1 mps 686 mmHg 67%
    12:00 +16°C° 0 mm 2 mps 686 mmHg 61%
    13:00 +17°C° 0 mm 2 mps 686 mmHg 55%
    14:00 +16°C° 0 mm 2 mps 686 mmHg 59%
    15:00 +16°C° 0 mm 2 mps 685 mmHg 64%
    16:00 +15°C° 0 mm 2 mps 685 mmHg 68%
    17:00 +13°C° 0 mm 1 mps 685 mmHg 75%
    18:00 +11°C° 0 mm 1 mps 684 mmHg 81%
    19:00 +9°C° 0 mm 1 mps 684 mmHg 88%
    20:00 +9°C° 0 mm 1 mps 684 mmHg 88%
    21:00 +9°C° 0 mm 1 mps 684 mmHg 87%
    22:00 +8°C° 0 mm 1 mps 684 mmHg 86%
    23:00 +8°C° 0 mm 1 mps 684 mmHg 84%

    Day after tomorrow, 26 October, Friday

    Time Temperature Precipitation Wind Pressure Humidity
    00:00 +8°C° 0 mm 1 mps 683 mmHg 82%
    01:00 +8°C° 0 mm 1 mps 683 mmHg 80%
    02:00 +8°C° 0 mm 1 mps 683 mmHg 77%
    03:00 +7°C° 0 mm 1 mps 682 mmHg 74%
    04:00 +7°C° 0 mm 1 mps 682 mmHg 72%
    05:00 +7°C° 0 mm 1 mps 682 mmHg 69%
    06:00 +7°C° 0 mm 1 mps 681 mmHg 67%
    07:00 +7°C° 0 mm 1 mps 681 mmHg 64%
    08:00 +9°C° 0 mm 1 mps 681 mmHg 59%
    09:00 +12°C° 0 mm 1 mps 682 mmHg 54%
    10:00 +15°C° 0 mm 1 mps 682 mmHg 49%
    11:00 +15°C° 0 mm 1 mps 682 mmHg 47%
    12:00 +16°C° 0 mm 1 mps 681 mmHg 44%
    13:00 +18°C° 0 mm 1 mps 681 mmHg 42%
    14:00 +16°C° 0 mm 1 mps 681 mmHg 48%
    15:00 +15°C° 0 mm 1 mps 680 mmHg 53%
    16:00 +15°C° 0 mm 1 mps 680 mmHg 59%
    17:00 +12°C° 0 mm 1 mps 680 mmHg 66%
    18:00 +10°C° 0 mm 1 mps 680 mmHg 73%
    19:00 +8°C° 0 mm 1 mps 679 mmHg 80%
    20:00 +8°C° 0 mm 1 mps 680 mmHg 81%
    21:00 +7°C° 0 mm 1 mps 680 mmHg 82%
    22:00 +7°C° 0 mm 1 mps 680 mmHg 83%
    23:00 +7°C° 0 mm 1 mps 680 mmHg 86%

    27 October, Saturday

    Time Temperature Precipitation Wind Pressure Humidity
    00:00 +7°C° 0 mm 1 mps 680 mmHg 88%
    01:00 +7°C° 0 mm 1 mps 680 mmHg 90%
    02:00 +7°C° 0.1 mm 1 mps 680 mmHg 91%
    03:00 +6°C° 0.1 mm 0 mps 679 mmHg 92%
    04:00 +6°C° 0.1 mm 0 mps 679 mmHg 94%
    05:00 +6°C° 0.6 mm 0 mps 679 mmHg 94%
    06:00 +7°C° 0.6 mm 1 mps 679 mmHg 94%
    07:00 +7°C° 0.6 mm 1 mps 678 mmHg 95%
    08:00 +7°C° 1.2 mm 1 mps 678 mmHg 94%
    09:00 +7°C° 1.2 mm 1 mps 678 mmHg 94%
    10:00 +8°C° 1.2 mm 1 mps 678 mmHg 93%
    11:00 +7°C° 1.5 mm 1 mps 678 mmHg 94%
    12:00 +7°C° 1.5 mm 1 mps 677 mmHg 94%
    13:00 +7°C° 1.5 mm 1 mps 677 mmHg 95%
    14:00 +6°C° 1.6 mm 2 mps 676 mmHg 95%
    15:00 +6°C° 1.6 mm 2 mps 676 mmHg 95%
    16:00 +5°C° 1.6 mm 2 mps 676 mmHg 96%
    17:00 +5°C° 1.4 mm 2 mps 676 mmHg 96%
    18:00 +4°C° 1.4 mm 2 mps 676 mmHg 96%
    19:00 +3°C° 1.4 mm 2 mps 676 mmHg 97%
    20:00 +3°C° 1.2 mm 2 mps 676 mmHg 97%
    21:00 +3°C° 1.2 mm 2 mps 676 mmHg 96%
    22:00 +4°C° 1.2 mm 1 mps 676 mmHg 96%
    23:00 +4°C° 0.7 mm 1 mps 675 mmHg 96%

    28 October, Sunday

    Time Temperature Precipitation Wind Pressure Humidity
    00:00 +4°C° 0.7 mm 1 mps 675 mmHg 96%
    01:00 +4°C° 0.7 mm 1 mps 675 mmHg 96%
    02:00 +4°C° 1.1 mm 1 mps 674 mmHg 97%
    03:00 +4°C° 1.1 mm 1 mps 674 mmHg 97%
    04:00 +4°C° 1.1 mm 1 mps 674 mmHg 97%
    05:00 +4°C° 1.4 mm 1 mps 673 mmHg 97%
    06:00 +3°C° 1.4 mm 2 mps 673 mmHg 97%
    07:00 +4°C° 1.4 mm 2 mps 673 mmHg 97%
    08:00 +4°C° 2.3 mm 2 mps 673 mmHg 97%
    09:00 +5°C° 2.3 mm 1 mps 673 mmHg 97%
    10:00 +5°C° 2.3 mm 1 mps 673 mmHg 97%
    11:00 +5°C° 2 mm 1 mps 673 mmHg 97%
    12:00 +5°C° 2 mm 1 mps 673 mmHg 96%
    13:00 +5°C° 2 mm 1 mps 673 mmHg 96%
    14:00 +5°C° 1.2 mm 1 mps 673 mmHg 97%
    15:00 +5°C° 1.2 mm 1 mps 673 mmHg 97%
    16:00 +6°C° 1.2 mm 1 mps 673 mmHg 97%
    17:00 +6°C° 0.7 mm 1 mps 674 mmHg 97%
    18:00 +6°C° 0.7 mm 1 mps 674 mmHg 98%
    19:00 +6°C° 0.7 mm 1 mps 674 mmHg 98%
    20:00 +6°C° 0.5 mm 1 mps 674 mmHg 98%
    21:00 +6°C° 0.5 mm 1 mps 674 mmHg 98%
    22:00 +6°C° 0.5 mm 1 mps 674 mmHg 98%
    23:00 +6°C° 0.8 mm 1 mps 674 mmHg 98%

    29 October, Monday

    Time Temperature Precipitation Wind Pressure Humidity
    00:00 +6°C° 0.8 mm 1 mps 673 mmHg 98%
    01:00 +6°C° 0.8 mm 1 mps 673 mmHg 98%
    02:00 +6°C° 0.6 mm 1 mps 673 mmHg 98%
    03:00 +7°C° 0.6 mm 1 mps 673 mmHg 98%
    04:00 +6°C° 0.6 mm 2 mps 672 mmHg 98%
    05:00 +6°C° 0.3 mm 2 mps 673 mmHg 98%
    06:00 +6°C° 0.3 mm 2 mps 673 mmHg 98%
    07:00 +6°C° 0.3 mm 2 mps 673 mmHg 98%
    08:00 +7°C° 0.1 mm 2 mps 673 mmHg 98%
    09:00 +7°C° 0.1 mm 2 mps 673 mmHg 98%
    10:00 +8°C° 0.1 mm 2 mps 673 mmHg 98%
    11:00 +8°C° 0.1 mm 3 mps 673 mmHg 97%
    12:00 +9°C° 0.1 mm 3 mps 673 mmHg 97%
    13:00 +9°C° 0.1 mm 3 mps 673 mmHg 97%
    14:00 +9°C° 0.1 mm 3 mps 673 mmHg 97%
    15:00 +9°C° 0.1 mm 3 mps 673 mmHg 97%
    16:00 +9°C° 0.1 mm 3 mps 673 mmHg 97%
    17:00 +8°C° 0.1 mm 3 mps 673 mmHg 97%
    18:00 +7°C° 0.1 mm 3 mps 673 mmHg 96%
    19:00 +7°C° 0.1 mm 3 mps 673 mmHg 96%
    20:00 +6°C° 0 mm 2 mps 673 mmHg 96%
    21:00 +6°C° 0 mm 2 mps 673 mmHg 96%
    22:00 +6°C° 0 mm 2 mps 673 mmHg 96%
    23:00 +6°C° 0.3 mm 2 mps 672 mmHg 96%

    30 October, Tuesday

    Time Temperature Precipitation Wind Pressure Humidity
    00:00 +6°C° 0.3 mm 2 mps 672 mmHg 96%
    01:00 +6°C° 0.3 mm 2 mps 671 mmHg 96%
    02:00 +6°C° 1.1 mm 2 mps 671 mmHg 96%
    03:00 +6°C° 1.1 mm 2 mps 670 mmHg 96%
    04:00 +7°C° 1.1 mm 3 mps 670 mmHg 97%
    05:00 +7°C° 0.3 mm 3 mps 670 mmHg 96%
    06:00 +7°C° 0.3 mm 3 mps 670 mmHg 95%
    07:00 +5°C° 0.3 mm 4 mps 670 mmHg 95%
    08:00 +7°C° 0.1 mm 3 mps 670 mmHg 93%
    09:00 +7°C° 0.1 mm 3 mps 671 mmHg 91%
    10:00 +7°C° 0.1 mm 3 mps 671 mmHg 89%
    11:00 +8°C° 0 mm 3 mps 672 mmHg 87%
    12:00 +8°C° 0 mm 3 mps 672 mmHg 85%
    13:00 +9°C° 0 mm 3 mps 672 mmHg 83%
    14:00 +8°C° 0 mm 2 mps 672 mmHg 84%
    15:00 +7°C° 0 mm 2 mps 672 mmHg 85%
    16:00 +7°C° 0 mm 2 mps 672 mmHg 86%
    17:00 +5°C° 0 mm 2 mps 673 mmHg 87%
    18:00 +4°C° 0 mm 2 mps 673 mmHg 88%
    19:00 +2°C° 0 mm 2 mps 674 mmHg 89%
    20:00 +2°C° 0 mm 2 mps 674 mmHg 89%
    21:00 +1°C° 0 mm 2 mps 674 mmHg 89%
    22:00 +1°C° 0 mm 2 mps 675 mmHg 90%
    23:00 +1°C° 0 mm 2 mps 675 mmHg 89%
    Show more